Other Surface Observations
Issued by NWS Tucson, AZ

Home | Current Version | Previous Version | Text Only | Print | Product List | Glossary On
Versions: 1 2 3 4 5 6 7 8 9 10 11 12 13 14 15 16 17 18 19 20 21 22 23 24 25 26 27 28 29 30 31 32 33 34 35 36 37 38 39 40 41 42 43 44 45 46 47 48 49 50
000
SXUS55 KTWC 301916
OSOTWC

WEATHER ROUNDUP FOR SOUTHEAST ARIZONA
NATIONAL WEATHER SERVICE TUCSON AZ
1215 PM MST THU MAR 30 2017

AZZ504>506-514-302015-
LOCATION       SKY/WX    TMP DP  RH WIND       PRES   REMARKS
TUCSON         SUNNY     79  24  13 NE5       29.93F
DAVIS-MONTHAN  SUNNY     77  23  13 VRB7      29.92F
CHILDRENS PARK N/A      N/A N/A  17 SE5               PIMA CO DEQ
ALVERNON/22ND  N/A       74 N/A N/A S4                PIMA CO DEQ
CHERRY/GLENN   N/A       76 N/A N/A SE4               PIMA CO DEQ
TANGERINE      N/A       74 N/A N/A S5                PIMA CO DEQ
CONTL RANCH    N/A       75  26  16 SE5               PIMA CO DEQ
GRANT/1ST      N/A       75  24  15 SE4               PIMA CO DEQ
CRAYCROFT/22ND N/A       74  23  15 N/A               PIMA CO DEQ
GOLFLINKS/KOLB N/A       73  24  16 S2                PIMA CO DEQ
AJO/12TH       N/A       75  26  16 S6                PIMA CO DEQ
FAIRGROUNDS    N/A       73 N/A N/A SW6               PIMA CO DEQ
SAGUARO        N/A       79  26  14 SW3               *SABINO CYN
SAN CARLOS     N/A       73  28  19 S7G11             *SAN CARLOS
GREEN VALLEY   N/A       75  21  13 S11               PIMA CO DEQ
HORSE CAMP CYN N/A       70  25  18 SW10G16           *ARAVAIPA CYN
RINCON MTNS    N/A       56  18  22 SW4G10            *NR MANNING CAMP
$$

AZZ509>511-302015-
LOCATION       SKY/WX    TMP DP  RH WIND       PRES   REMARKS
SAFFORD        SUNNY     74  21  13 CALM      29.91F
STRAY HORSE    N/A       54  19  25 N/A               *
TRAIL CABIN    N/A       63  20  19 W7G14             *N OF GRANVILLE
BLACK HILLS    NOT AVBL
DRY LAKE       N/A       60  19  20 SW7G15            *NATANES MTNS
NOON CREEK     N/A       68  24  19 NE6G11            *PINALENO MTNS
COLUMBINE      N/A       49  21  33 SW5G13            *PINALENO MTNS
GUTHRIE        N/A       62  22  21 SW3G12            *SW OF GUTHRIE
$$

AZZ502-503-513-302015-
LOCATION       SKY/WX    TMP DP  RH WIND       PRES   REMARKS
NOGALES        SUNNY     79  11   7 SW14      29.99F
SELLS          N/A       80  21  11 NW10G17           *
SASABE         N/A       78  17  10 SW11G17           *ALTAR VLY
HOPKINS        N/A       63  15  15 W8G13             *SANTA RITA MTNS
CARR CYN       N/A       73  17  12 E3G10             *W OF HEREFORD
$$

AZZ507-508-512-302015-
LOCATION       SKY/WX    TMP DP  RH WIND       PRES   REMARKS
SIERRA VISTA   SUNNY     76   8   7 W12G18    30.01F
DOUGLAS        SUNNY     75  19  12 S12G20    29.99F
EMPIRE MTNS    NOT AVBL
MULESHOE RANCH N/A       71  25  18 W7G12             *PRESERVE
HEADQUARTERS   N/A       69  12  11 W8G17             *CHIRICAHUA MTNS
$$

.............................NOTES.............................
THIS IS AN AUTOMATED COLLECTIVE WITH MINIMAL QUALITY CONTROL.
PIMA CO DEQ SITES HAVE NONSTANDARD WIND SENSOR HEIGHTS.
PIMA CO DEQ SITES DO NOT REPORT WIND GUSTS.
* INDICATES WIND SENSORS LOCATED AT 20 FEET INSTEAD OF 33 FEET.
..............................KEY..............................
SKY/WX - SKY CONDITION/WEATHER
TMP    - TEMPERATURE IN FAHRENHEIT
DP     - DEWPOINT IN FAHRENHEIT
RH     - RELATIVE HUMIDITY IN PERCENT
WIND   - DIRECTION AND SPEED IN MILES PER HOUR (MPH)
VRB    - VARIABLE WIND DIRECTION
PRES   - MEAN SEA LEVEL PRESSURE IN INCHES OF MERCURY
         F - FALLING PRESSURE   R - RISING PRESSURE
         S - STEADY PRESSURE
VSB    - VISIBILITY IN MILES
HX     - HEAT INDEX IN FAHRENHEIT
WCI    - WIND CHILL INDEX IN FAHRENHEIT
N/A    - NOT AVAILABLE
AFB    - AIR FORCE BASE
         DAVIS-MONTHAN IS DAVIS-MONTHAN AIR FORCE BASE
CYN    - CANYON
MTNS   - MOUNTAINS
NCA    - NATIONAL CONSERVATION AREA
NR     - NEAR
VLY    - VALLEY
CONTL  - CONTINENTAL
PIMA CO DEQ - PIMA COUNTY DEPT OF ENVIRONMENTAL QUALITY



USA.gov is the U.S. government's official web portal to all federal, state and local government web resources and services.